User: anonymous   Login
Location: Azul
(36.7830°S, 59.8500°W)
Time: 01:05:17
(UTC-03:00)
Language:

AO-91 - Orbit

View from above orbital plane
View from above orbital plane
View from above satellite
View from above satellite

Ground track
Ground track

The orbit data is extracted from the following two-line orbital elements,

1 43017U 17073E   21295.53329352  .00001136  00000-0  92966-4 0  9991
2 43017  97.6931 194.4098 0252456 245.5250 111.9446 14.79869083211919
Epoch (UTC): 22 October 2021 12:47:56
Eccentricity: 0.0252456
inclination: 97.6931°
perigee height: 453 km
apogee height: 806 km
right ascension of ascending node: 194.4098°
argument of perigee: 245.5250°
revolutions per day: 14.79869083
mean anomaly at epoch: 111.9446°
orbit number at epoch: 21191

The dashed part of the orbit path shows where the satellite is in the earth's shadow,  

DLR